Location: Hicks
(37.9226°N, 89.9954°W)
Time: 08:39:20
(UTC+00:00)

Meteor 1-10 Rocket - Pass Details

Date: 14 December 2025
Orbit: 835 x 908 km, 81.3° (Epoch: 24 January)

Event Time Altitude Azimuth Distance (km) Brightness Sun altitude
Rises 12:32:19 0° 347° (NNW) 3,538 7.1 -7.1°
Reaches altitude 10° 12:34:48 10° 344° (NNW) 2,596 6.4 -6.7°
Maximum altitude 12:40:39 63° 265° (W) 1,012 4.4 -5.6°
Drops below altitude 10° 12:46:27 10° 186° (S) 2,576 7.0 -4.6°
Sets 12:48:55 0° 183° (S) 3,508 7.8 -4.2°
